Time,TemperatureF,DewpointF,PressureIn,WindDirection,WindDirectionDegrees,WindSpeedMPH,WindSpeedGustMPH,Humidity,HourlyPrecipIn,Conditions,Clouds,dailyrainin,SoftwareType,DateUTC
2013-05-27 00:00:00,46.4,14.2,29.78,ESE,106,6.0,7.0,27,0.00,,,0.00,Wunderground v.1.15,2013-05-27 06:00:00,
2013-05-27 00:10:00,45.8,14.5,29.78,East,84,5.0,5.0,28,0.00,,,0.00,Wunderground v.1.15,2013-05-27 06:10:00,
2013-05-27 00:15:00,45.6,15.1,29.78,ENE,75,6.0,6.0,29,0.00,,,0.00,Wunderground v.1.15,2013-05-27 06:15:00,
2013-05-27 00:20:00,45.3,14.9,29.78,ENE,76,6.0,6.0,29,0.00,,,0.00,Wunderground v.1.15,2013-05-27 06:20:00,
2013-05-27 00:25:00,45.1,14.7,29.78,East,92,6.0,6.0,29,0.00,,,0.00,Wunderground v.1.15,2013-05-27 06:25:00,
2013-05-27 00:30:00,44.8,14.4,29.78,East,92,5.0,5.0,29,0.00,,,0.00,Wunderground v.1.15,2013-05-27 06:30:00,
2013-05-27 00:40:00,43.9,14.4,29.78,ENE,62,5.0,8.0,30,0.00,,,0.00,Wunderground v.1.15,2013-05-27 06:40:00,
2013-05-27 00:45:00,43.9,14.4,29.78,ENE,66,5.0,8.0,30,0.00,,,0.00,Wunderground v.1.15,2013-05-27 06:45:00,
2013-05-27 00:50:00,43.4,14.7,29.79,East,91,4.0,4.0,31,0.00,,,0.00,Wunderground v.1.15,2013-05-27 06:50:00,
2013-05-27 01:00:00,43.1,14.5,29.79,ESE,103,4.0,4.0,31,0.00,,,0.00,Wunderground v.1.15,2013-05-27 07:00:00,
2013-05-27 01:10:00,42.5,14.7,29.78,East,86,3.0,3.0,32,0.00,,,0.00,Wunderground v.1.15,2013-05-27 07:10:00,
2013-05-27 01:15:00,42.2,15.1,29.79,NNE,27,2.0,3.0,33,0.00,,,0.00,Wunderground v.1.15,2013-05-27 07:15:00,
2013-05-27 01:20:00,41.8,14.8,29.79,East,80,1.0,3.0,33,0.00,,,0.00,Wunderground v.1.15,2013-05-27 07:20:00,
2013-05-27 01:25:00,41.5,15.2,29.79,East,79,0.0,3.0,34,0.00,,,0.00,Wunderground v.1.15,2013-05-27 07:25:00,
2013-05-27 01:35:00,40.9,15.3,29.79,SE,131,1.0,5.0,35,0.00,,,0.00,Wunderground v.1.15,2013-05-27 07:35:00,
2013-05-27 01:40:00,40.6,14.4,29.79,NE,38,2.0,2.0,34,0.00,,,0.00,Wunderground v.1.15,2013-05-27 07:40:00,
2013-05-27 01:45:00,40.3,14.8,29.79,East,98,1.0,2.0,35,0.00,,,0.00,Wunderground v.1.15,2013-05-27 07:45:00,
2013-05-27 01:50:00,40.0,15.2,29.79,NE,51,1.0,1.0,36,0.00,,,0.00,Wunderground v.1.15,2013-05-27 07:50:00,
2013-05-27 01:55:00,39.7,15.5,29.79,ESE,102,1.0,1.0,37,0.00,,,0.00,Wunderground v.1.15,2013-05-27 07:55:00,
2013-05-27 02:00:00,39.6,14.8,29.79,East,93,1.0,5.0,36,0.00,,,0.00,Wunderground v.1.15,2013-05-27 08:00:00,
2013-05-27 02:10:00,39.3,14.5,29.80,SE,140,1.0,1.0,36,0.00,,,0.00,Wunderground v.1.15,2013-05-27 08:10:00,
2013-05-27 02:15:00,38.9,14.8,29.80,NNE,18,1.0,1.0,37,0.00,,,0.00,Wunderground v.1.15,2013-05-27 08:15:00,
2013-05-27 02:20:00,38.7,15.2,29.80,NE,45,0.0,0.0,38,0.00,,,0.00,Wunderground v.1.15,2013-05-27 08:20:00,
2013-05-27 02:30:00,38.3,14.9,29.79,SSW,195,0.0,0.0,38,0.00,,,0.00,Wunderground v.1.15,2013-05-27 08:30:00,
2013-05-27 02:35:00,38.2,14.8,29.79,SSE,155,0.0,0.0,38,0.00,,,0.00,Wunderground v.1.15,2013-05-27 08:35:00,
2013-05-27 02:40:00,37.9,14.5,29.79,SE,143,0.0,0.0,38,0.00,,,0.00,Wunderground v.1.15,2013-05-27 08:40:00,
2013-05-27 02:50:00,37.4,14.7,29.80,SSW,195,0.0,0.0,39,0.00,,,0.00,Wunderground v.1.15,2013-05-27 08:50:00,
2013-05-27 03:00:00,37.0,14.9,29.80,SSW,195,0.0,1.0,40,0.00,,,0.00,Wunderground v.1.15,2013-05-27 09:00:00,
2013-05-27 03:10:00,36.6,15.1,29.80,SSW,195,0.0,1.0,41,0.00,,,0.00,Wunderground v.1.15,2013-05-27 09:10:00,
2013-05-27 03:15:00,36.4,14.9,29.80,SSW,195,0.0,1.0,41,0.00,,,0.00,Wunderground v.1.15,2013-05-27 09:15:00,
2013-05-27 03:25:00,36.0,14.5,29.79,South,177,0.0,2.0,41,0.00,,,0.00,Wunderground v.1.15,2013-05-27 09:25:00,
2013-05-27 03:30:00,35.8,14.9,29.80,South,177,0.0,0.0,42,0.00,,,0.00,Wunderground v.1.15,2013-05-27 09:30:00,
2013-05-27 03:40:00,35.3,15.0,29.80,South,177,0.0,2.0,43,0.00,,,0.00,Wunderground v.1.15,2013-05-27 09:40:00,
2013-05-27 03:45:00,35.2,14.9,29.80,South,191,1.0,2.0,43,0.00,,,0.00,Wunderground v.1.15,2013-05-27 09:45:00,
2013-05-27 03:50:00,35.0,14.7,29.80,South,191,1.0,1.0,43,0.00,,,0.00,Wunderground v.1.15,2013-05-27 09:50:00,
2013-05-27 04:00:00,34.5,14.8,29.80,South,191,0.0,0.0,44,0.00,,,0.00,Wunderground v.1.15,2013-05-27 10:00:00,
2013-05-27 04:10:00,34.2,14.5,29.80,South,191,0.0,2.0,44,0.00,,,0.00,Wunderground v.1.15,2013-05-27 10:10:00,
2013-05-27 04:15:00,33.9,14.3,29.80,South,186,0.0,2.0,44,0.00,,,0.00,Wunderground v.1.15,2013-05-27 10:15:00,
2013-05-27 04:20:00,33.8,14.7,29.81,South,186,0.0,1.0,45,0.00,,,0.00,Wunderground v.1.15,2013-05-27 10:20:00,
2013-05-27 04:30:00,33.5,14.4,29.80,South,186,0.0,0.0,45,0.00,,,0.00,Wunderground v.1.15,2013-05-27 10:30:00,
2013-05-27 04:35:00,33.2,14.6,29.81,South,186,0.0,0.0,46,0.00,,,0.00,Wunderground v.1.15,2013-05-27 10:35:00,
2013-05-27 04:40:00,33.2,15.1,29.80,South,186,0.0,0.0,47,0.00,,,0.00,Wunderground v.1.15,2013-05-27 10:40:00,
2013-05-27 04:45:00,32.9,14.4,29.80,South,186,0.0,0.0,46,0.00,,,0.00,Wunderground v.1.15,2013-05-27 10:45:00,
2013-05-27 04:50:00,32.6,14.6,29.80,South,186,0.0,0.0,47,0.00,,,0.00,Wunderground v.1.15,2013-05-27 10:50:00,
2013-05-27 04:55:00,32.4,15.3,29.80,South,186,0.0,0.0,49,0.00,,,0.00,Wunderground v.1.15,2013-05-27 10:55:00,
2013-05-27 05:00:00,32.1,15.1,29.80,South,186,0.0,0.0,49,0.00,,,0.00,Wunderground v.1.15,2013-05-27 11:00:00,
2013-05-27 05:10:00,31.7,15.6,29.80,South,186,0.0,0.0,51,0.00,,,0.00,Wunderground v.1.15,2013-05-27 11:10:00,
2013-05-27 05:15:00,31.5,15.4,29.80,South,186,0.0,0.0,51,0.00,,,0.00,Wunderground v.1.15,2013-05-27 11:15:00,
2013-05-27 05:20:00,31.3,15.2,29.80,South,186,0.0,0.0,51,0.00,,,0.00,Wunderground v.1.15,2013-05-27 11:20:00,
2013-05-27 05:25:00,31.1,15.5,29.81,South,186,0.0,0.0,52,0.00,,,0.00,Wunderground v.1.15,2013-05-27 11:25:00,
2013-05-27 05:30:00,31.0,15.8,29.81,South,186,0.0,0.0,53,0.00,,,0.00,Wunderground v.1.15,2013-05-27 11:30:00,
2013-05-27 05:40:00,30.7,16.0,29.81,South,186,0.0,1.0,54,0.00,,,0.00,Wunderground v.1.15,2013-05-27 11:40:00,
2013-05-27 05:50:00,30.3,16.0,29.81,South,186,0.0,0.0,55,0.00,,,0.00,Wunderground v.1.15,2013-05-27 11:50:00,
2013-05-27 05:55:00,30.2,16.0,29.80,South,186,0.0,0.0,55,0.00,,,0.00,Wunderground v.1.15,2013-05-27 11:55:00,
2013-05-27 06:00:00,30.1,15.9,29.80,South,186,0.0,0.0,55,0.00,,,0.00,Wunderground v.1.15,2013-05-27 12:00:00,
2013-05-27 06:10:00,30.0,16.6,29.81,South,186,0.0,0.0,57,0.00,,,0.00,Wunderground v.1.15,2013-05-27 12:10:00,
2013-05-27 06:20:00,30.1,16.3,29.81,South,186,0.0,0.0,56,0.00,,,0.00,Wunderground v.1.15,2013-05-27 12:20:00,
2013-05-27 06:30:00,30.2,16.8,29.81,South,186,0.0,0.0,57,0.00,,,0.00,Wunderground v.1.15,2013-05-27 12:30:00,
2013-05-27 06:35:00,30.2,16.8,29.81,South,186,0.0,0.0,57,0.00,,,0.00,Wunderground v.1.15,2013-05-27 12:35:00,
2013-05-27 06:40:00,30.4,17.0,29.81,South,186,0.0,0.0,57,0.00,,,0.00,Wunderground v.1.15,2013-05-27 12:40:00,
2013-05-27 06:45:00,30.6,16.7,29.80,South,186,0.0,0.0,56,0.00,,,0.00,Wunderground v.1.15,2013-05-27 12:45:00,
2013-05-27 06:55:00,31.0,17.5,29.80,South,186,0.0,0.0,57,0.00,,,0.00,Wunderground v.1.15,2013-05-27 12:55:00,
2013-05-27 07:00:00,31.2,17.3,29.79,South,186,0.0,0.0,56,0.00,,,0.00,Wunderground v.1.15,2013-05-27 13:00:00,
2013-05-27 07:10:00,31.8,17.9,29.79,South,186,0.0,0.0,56,0.00,,,0.00,Wunderground v.1.15,2013-05-27 13:10:00,
2013-05-27 07:15:00,32.1,17.7,29.79,South,186,0.0,0.0,55,0.00,,,0.00,Wunderground v.1.15,2013-05-27 13:15:00,
2013-05-27 07:20:00,32.3,18.3,29.79,South,186,0.0,0.0,56,0.00,,,0.00,Wunderground v.1.15,2013-05-27 13:20:00,
2013-05-27 07:25:00,32.6,18.2,29.79,South,186,0.0,0.0,55,0.00,,,0.00,Wunderground v.1.15,2013-05-27 13:25:00,
2013-05-27 07:30:00,32.9,18.5,29.79,South,186,0.0,0.0,55,0.00,,,0.00,Wunderground v.1.15,2013-05-27 13:30:00,
2013-05-27 07:40:00,33.6,18.3,29.79,South,186,0.0,0.0,53,0.00,,,0.00,Wunderground v.1.15,2013-05-27 13:40:00,
2013-05-27 07:45:00,34.0,18.6,29.79,South,186,0.0,0.0,53,0.00,,,0.00,Wunderground v.1.15,2013-05-27 13:45:00,
2013-05-27 07:50:00,34.4,18.6,29.79,South,186,0.0,0.0,52,0.00,,,0.00,Wunderground v.1.15,2013-05-27 13:50:00,
2013-05-27 07:55:00,35.3,18.5,29.78,South,186,0.0,0.0,50,0.00,,,0.00,Wunderground v.1.15,2013-05-27 13:55:00,
2013-05-27 08:00:00,38.0,18.5,29.78,SW,228,0.0,0.0,45,0.00,,,0.00,Wunderground v.1.15,2013-05-27 14:00:00,
2013-05-27 08:10:00,48.7,13.5,29.78,NNW,329,4.0,6.0,24,0.00,,,0.00,Wunderground v.1.15,2013-05-27 14:10:00,
2013-05-27 08:15:00,51.8,10.8,29.78,NW,304,6.0,6.0,19,0.00,,,0.00,Wunderground v.1.15,2013-05-27 14:15:00,
2013-05-27 08:20:00,53.1,9.4,29.79,NW,325,6.0,6.0,17,0.00,,,0.00,Wunderground v.1.15,2013-05-27 14:20:00,
2013-05-27 08:30:00,54.3,9.0,29.78,NW,317,7.0,7.0,16,0.00,,,0.00,Wunderground v.1.15,2013-05-27 14:30:00,
2013-05-27 08:40:00,54.9,8.0,29.78,NNW,345,7.0,7.0,15,0.00,,,0.00,Wunderground v.1.15,2013-05-27 14:40:00,
2013-05-27 08:45:00,55.4,8.4,29.78,NW,323,6.0,7.0,15,0.00,,,0.00,Wunderground v.1.15,2013-05-27 14:45:00,
2013-05-27 08:50:00,55.9,8.8,29.78,NNW,332,6.0,9.0,15,0.00,,,0.00,Wunderground v.1.15,2013-05-27 14:50:00,
2013-05-27 08:55:00,56.2,9.1,29.78,NNW,335,7.0,9.0,15,0.00,,,0.00,Wunderground v.1.15,2013-05-27 14:55:00,
2013-05-27 09:00:00,56.7,10.9,29.78,NW,324,7.0,7.0,16,0.00,,,0.00,Wunderground v.1.15,2013-05-27 15:00:00,
2013-05-27 09:10:00,57.5,10.1,29.78,NW,325,6.0,6.0,15,0.00,,,0.00,Wunderground v.1.15,2013-05-27 15:10:00,
2013-05-27 09:15:00,57.5,10.1,29.78,NNW,341,7.0,11.0,15,0.00,,,0.00,Wunderground v.1.15,2013-05-27 15:15:00,
2013-05-27 09:20:00,57.9,10.5,29.78,NW,319,7.0,11.0,15,0.00,,,0.00,Wunderground v.1.15,2013-05-27 15:20:00,
2013-05-27 09:30:00,58.6,9.5,29.78,NNW,340,7.0,8.0,14,0.00,,,0.00,Wunderground v.1.15,2013-05-27 15:30:00,
2013-05-27 09:40:00,59.7,10.3,29.78,NNW,327,4.0,5.0,14,0.00,,,0.00,Wunderground v.1.15,2013-05-27 15:40:00,
2013-05-27 09:45:00,59.5,11.7,29.77,NNW,333,5.0,6.0,15,0.00,,,0.00,Wunderground v.1.15,2013-05-27 15:45:00,
2013-05-27 09:50:00,59.8,12.0,29.78,NNW,342,6.0,6.0,15,0.00,,,0.00,Wunderground v.1.15,2013-05-27 15:50:00,
2013-05-27 09:55:00,60.0,12.1,29.77,NNW,348,5.0,10.0,15,0.00,,,0.00,Wunderground v.1.15,2013-05-27 15:55:00,
2013-05-27 10:00:00,60.0,10.6,29.77,North,355,7.0,11.0,14,0.00,,,0.00,Wunderground v.1.15,2013-05-27 16:00:00,
2013-05-27 10:10:00,60.1,12.2,29.77,WNW,298,7.0,7.0,15,0.00,,,0.00,Wunderground v.1.15,2013-05-27 16:10:00,
2013-05-27 10:15:00,60.8,11.2,29.76,NNW,334,5.0,7.0,14,0.00,,,0.00,Wunderground v.1.15,2013-05-27 16:15:00,
2013-05-27 10:20:00,61.7,10.3,29.76,North,5,4.0,4.0,13,0.00,,,0.00,Wunderground v.1.15,2013-05-27 16:20:00,
2013-05-27 10:30:00,62.4,12.5,29.76,WSW,240,4.0,4.0,14,0.00,,,0.00,Wunderground v.1.15,2013-05-27 16:30:00,
2013-05-27 10:35:00,62.4,9.0,29.77,NNW,340,5.0,7.0,12,0.00,,,0.00,Wunderground v.1.15,2013-05-27 16:35:00,
2013-05-27 10:45:00,62.6,11.0,29.76,North,355,6.0,6.0,13,0.00,,,0.00,Wunderground v.1.15,2013-05-27 16:45:00,
2013-05-27 10:55:00,62.2,10.7,29.77,NW,326,5.0,12.0,13,0.00,,,0.00,Wunderground v.1.15,2013-05-27 16:55:00,
2013-05-27 11:00:00,62.2,8.9,29.77,NW,314,6.0,6.0,12,0.00,,,0.00,Wunderground v.1.15,2013-05-27 17:00:00,
2013-05-27 11:10:00,62.6,9.2,29.77,NNW,337,5.0,6.0,12,0.00,,,0.00,Wunderground v.1.15,2013-05-27 17:10:00,
2013-05-27 11:15:00,62.7,9.3,29.77,NW,323,7.0,7.0,12,0.00,,,0.00,Wunderground v.1.15,2013-05-27 17:15:00,
2013-05-27 11:20:00,62.7,7.3,29.77,NE,36,6.0,6.0,11,0.00,,,0.00,Wunderground v.1.15,2013-05-27 17:20:00,
2013-05-27 11:25:00,63.3,9.7,29.77,NNW,346,5.0,10.0,12,0.00,,,0.00,Wunderground v.1.15,2013-05-27 17:25:00,
2013-05-27 11:35:00,64.9,6.9,29.76,NW,313,5.0,6.0,10,0.00,,,0.00,Wunderground v.1.15,2013-05-27 17:35:00,
2013-05-27 11:40:00,64.3,8.6,29.76,NW,312,5.0,5.0,11,0.00,,,0.00,Wunderground v.1.15,2013-05-27 17:40:00,
2013-05-27 11:45:00,64.2,10.5,29.76,NNW,333,5.0,5.0,12,0.00,,,0.00,Wunderground v.1.15,2013-05-27 17:45:00,
2013-05-27 11:55:00,64.1,8.4,29.76,North,355,6.0,9.0,11,0.00,,,0.00,Wunderground v.1.15,2013-05-27 17:55:00,
2013-05-27 12:00:00,64.3,8.6,29.75,NNW,341,7.0,7.0,11,0.00,,,0.00,Wunderground v.1.15,2013-05-27 18:00:00,
2013-05-27 12:10:00,65.2,11.2,29.75,NNE,26,6.0,6.0,12,0.00,,,0.00,Wunderground v.1.15,2013-05-27 18:10:00,
2013-05-27 12:15:00,65.6,9.6,29.76,NNW,340,6.0,6.0,11,0.00,,,0.00,Wunderground v.1.15,2013-05-27 18:15:00,
2013-05-27 12:20:00,65.8,9.7,29.75,NNW,330,6.0,6.0,11,0.00,,,0.00,Wunderground v.1.15,2013-05-27 18:20:00,
2013-05-27 12:25:00,65.6,9.6,29.75,NNW,330,6.0,9.0,11,0.00,,,0.00,Wunderground v.1.15,2013-05-27 18:25:00,
2013-05-27 12:35:00,66.2,10.1,29.75,WNW,300,5.0,6.0,11,0.00,,,0.00,Wunderground v.1.15,2013-05-27 18:35:00,
2013-05-27 12:40:00,66.1,10.0,29.75,NNW,330,4.0,7.0,11,0.00,,,0.00,Wunderground v.1.15,2013-05-27 18:40:00,
2013-05-27 12:45:00,66.2,13.8,29.74,NW,324,5.0,7.0,13,0.00,,,0.00,Wunderground v.1.15,2013-05-27 18:45:00,
2013-05-27 12:50:00,66.4,10.2,29.74,NNW,337,5.0,5.0,11,0.00,,,0.00,Wunderground v.1.15,2013-05-27 18:50:00,
2013-05-27 12:55:00,66.6,8.2,29.74,NW,323,6.0,9.0,10,0.00,,,0.00,Wunderground v.1.15,2013-05-27 18:55:00,
2013-05-27 13:00:00,67.0,10.7,29.74,NNW,338,5.0,5.0,11,0.00,,,0.00,Wunderground v.1.15,2013-05-27 19:00:00,
2013-05-27 13:10:00,66.6,8.2,29.73,NW,324,6.0,6.0,10,0.00,,,0.00,Wunderground v.1.15,2013-05-27 19:10:00,
2013-05-27 13:20:00,66.5,8.2,29.73,NNW,336,6.0,6.0,10,0.00,,,0.00,Wunderground v.1.15,2013-05-27 19:20:00,
2013-05-27 13:25:00,67.3,8.8,29.73,NW,326,6.0,7.0,10,0.00,,,0.00,Wunderground v.1.15,2013-05-27 19:25:00,
2013-05-27 13:30:00,67.7,6.7,29.73,NNW,337,7.0,9.0,9,0.00,,,0.00,Wunderground v.1.15,2013-05-27 19:30:00,
2013-05-27 13:40:00,67.3,8.8,29.73,NNW,327,5.0,5.0,10,0.00,,,0.00,Wunderground v.1.15,2013-05-27 19:40:00,
2013-05-27 13:45:00,67.1,8.6,29.73,NW,319,5.0,6.0,10,0.00,,,0.00,Wunderground v.1.15,2013-05-27 19:45:00,
2013-05-27 13:50:00,66.8,8.4,29.73,NNW,334,7.0,11.0,10,0.00,,,0.00,Wunderground v.1.15,2013-05-27 19:50:00,
2013-05-27 13:55:00,66.5,10.3,29.73,NW,326,7.0,11.0,11,0.00,,,0.00,Wunderground v.1.15,2013-05-27 19:55:00,
2013-05-27 14:00:00,66.9,8.5,29.73,NW,304,6.0,6.0,10,0.00,,,0.00,Wunderground v.1.15,2013-05-27 20:00:00,
2013-05-27 14:10:00,66.5,5.8,29.73,NW,321,5.0,6.0,9,0.00,,,0.00,Wunderground v.1.15,2013-05-27 20:10:00,
2013-05-27 14:15:00,66.2,7.9,29.72,NW,320,5.0,6.0,10,0.00,,,0.00,Wunderground v.1.15,2013-05-27 20:15:00,
2013-05-27 14:25:00,66.7,8.3,29.72,NNW,333,5.0,7.0,10,0.00,,,0.00,Wunderground v.1.15,2013-05-27 20:25:00,
2013-05-27 14:30:00,66.5,8.2,29.71,NW,323,5.0,6.0,10,0.00,,,0.00,Wunderground v.1.15,2013-05-27 20:30:00,
2013-05-27 14:35:00,66.3,3.1,29.71,NNE,21,5.0,6.0,8,0.00,,,0.00,Wunderground v.1.15,2013-05-27 20:35:00,
2013-05-27 14:45:00,66.5,5.8,29.71,NNE,20,6.0,12.0,9,0.00,,,0.00,Wunderground v.1.15,2013-05-27 20:45:00,
2013-05-27 14:50:00,66.9,6.1,29.70,NNW,348,5.0,8.0,9,0.00,,,0.00,Wunderground v.1.15,2013-05-27 20:50:00,
2013-05-27 14:55:00,66.8,6.1,29.70,NNW,329,5.0,8.0,9,0.00,,,0.00,Wunderground v.1.15,2013-05-27 20:55:00,
2013-05-27 15:00:00,67.2,3.8,29.70,North,355,6.0,7.0,8,0.00,,,0.00,Wunderground v.1.15,2013-05-27 21:00:00,
2013-05-27 15:10:00,67.1,3.7,29.70,NW,325,6.0,6.0,8,0.00,,,0.00,Wunderground v.1.15,2013-05-27 21:10:00,
2013-05-27 15:15:00,67.1,3.7,29.70,NW,313,4.0,6.0,8,0.00,,,0.00,Wunderground v.1.15,2013-05-27 21:15:00,
2013-05-27 15:20:00,67.0,3.6,29.70,NNW,338,5.0,5.0,8,0.00,,,0.00,Wunderground v.1.15,2013-05-27 21:20:00,
2013-05-27 15:25:00,67.1,6.3,29.70,NW,325,4.0,5.0,9,0.00,,,0.00,Wunderground v.1.15,2013-05-27 21:25:00,
2013-05-27 15:35:00,67.4,8.9,29.69,NW,313,5.0,12.0,10,0.00,,,0.00,Wunderground v.1.15,2013-05-27 21:35:00,
2013-05-27 15:40:00,67.0,10.7,29.69,NNW,341,7.0,7.0,11,0.00,,,0.00,Wunderground v.1.15,2013-05-27 21:40:00,
2013-05-27 15:45:00,67.0,8.5,29.69,NNW,327,8.0,8.0,10,0.00,,,0.00,Wunderground v.1.15,2013-05-27 21:45:00,
2013-05-27 15:50:00,67.0,6.2,29.69,NNW,331,9.0,9.0,9,0.00,,,0.00,Wunderground v.1.15,2013-05-27 21:50:00,
2013-05-27 15:55:00,66.8,6.1,29.70,NNE,13,8.0,9.0,9,0.00,,,0.00,Wunderground v.1.15,2013-05-27 21:55:00,
2013-05-27 16:00:00,66.7,6.0,29.70,NNW,336,8.0,8.0,9,0.00,,,0.00,Wunderground v.1.15,2013-05-27 22:00:00,
2013-05-27 16:10:00,66.3,3.1,29.69,NNE,27,7.0,7.0,8,0.00,,,0.00,Wunderground v.1.15,2013-05-27 22:10:00,
2013-05-27 16:15:00,66.9,6.1,29.68,NNE,18,4.0,7.0,9,0.00,,,0.00,Wunderground v.1.15,2013-05-27 22:15:00,
2013-05-27 16:20:00,67.1,6.3,29.68,NNW,327,1.0,3.0,9,0.00,,,0.00,Wunderground v.1.15,2013-05-27 22:20:00,
2013-05-27 16:25:00,66.6,3.3,29.68,NW,321,5.0,14.0,8,0.00,,,0.00,Wunderground v.1.15,2013-05-27 22:25:00,
2013-05-27 16:30:00,66.4,3.2,29.68,NNW,331,7.0,7.0,8,0.00,,,0.00,Wunderground v.1.15,2013-05-27 22:30:00,
2013-05-27 16:40:00,66.0,5.5,29.69,NW,321,6.0,6.0,9,0.00,,,0.00,Wunderground v.1.15,2013-05-27 22:40:00,
2013-05-27 16:45:00,65.8,2.7,29.68,North,355,6.0,6.0,8,0.00,,,0.00,Wunderground v.1.15,2013-05-27 22:45:00,
2013-05-27 16:50:00,65.6,5.2,29.69,NNW,328,6.0,6.0,9,0.00,,,0.00,Wunderground v.1.15,2013-05-27 22:50:00,
2013-05-27 16:55:00,65.5,5.1,29.69,NW,326,5.0,6.0,9,0.00,,,0.00,Wunderground v.1.15,2013-05-27 22:55:00,
2013-05-27 17:00:00,65.4,5.0,29.69,North,351,5.0,5.0,9,0.00,,,0.00,Wunderground v.1.15,2013-05-27 23:00:00,
2013-05-27 17:10:00,65.3,4.9,29.69,NNW,333,5.0,7.0,9,0.00,,,0.00,Wunderground v.1.15,2013-05-27 23:10:00,
2013-05-27 17:20:00,65.0,4.7,29.69,NW,317,6.0,6.0,9,0.00,,,0.00,Wunderground v.1.15,2013-05-27 23:20:00,
2013-05-27 17:25:00,64.8,4.5,29.69,NNW,330,4.0,6.0,9,0.00,,,0.00,Wunderground v.1.15,2013-05-27 23:25:00,
2013-05-27 17:30:00,64.6,6.7,29.69,NNW,333,3.0,3.0,10,0.00,,,0.00,Wunderground v.1.15,2013-05-27 23:30:00,
2013-05-27 17:40:00,64.4,8.7,29.69,NW,322,3.0,3.0,11,0.00,,,0.00,Wunderground v.1.15,2013-05-27 23:40:00,
2013-05-27 17:45:00,64.3,6.5,29.69,NW,306,2.0,3.0,10,0.00,,,0.00,Wunderground v.1.15,2013-05-27 23:45:00,
2013-05-27 17:55:00,64.2,6.4,29.69,NNW,338,4.0,7.0,10,0.00,,,0.00,Wunderground v.1.15,2013-05-27 23:55:00,
2013-05-27 18:00:00,64.1,8.4,29.69,NE,43,4.0,4.0,11,0.00,,,0.00,Wunderground v.1.15,2013-05-28 00:00:00,
2013-05-27 18:10:00,63.9,6.2,29.69,North,355,4.0,4.0,10,0.00,,,0.00,Wunderground v.1.15,2013-05-28 00:10:00,
2013-05-27 18:15:00,63.8,6.1,29.70,NNW,336,4.0,4.0,10,0.00,,,0.00,Wunderground v.1.15,2013-05-28 00:15:00,
2013-05-27 18:20:00,63.6,5.9,29.69,NW,319,3.0,3.0,10,0.00,,,0.00,Wunderground v.1.15,2013-05-28 00:20:00,
2013-05-27 18:25:00,63.5,5.9,29.70,NW,317,3.0,3.0,10,0.00,,,0.00,Wunderground v.1.15,2013-05-28 00:25:00,
2013-05-27 18:30:00,63.4,5.8,29.70,NW,323,3.0,3.0,10,0.00,,,0.00,Wunderground v.1.15,2013-05-28 00:30:00,
2013-05-27 18:40:00,63.3,7.8,29.69,WNW,299,2.0,2.0,11,0.00,,,0.00,Wunderground v.1.15,2013-05-28 00:40:00,
2013-05-27 18:45:00,63.2,7.7,29.70,East,97,3.0,3.0,11,0.00,,,0.00,Wunderground v.1.15,2013-05-28 00:45:00,
2013-05-27 18:50:00,63.1,7.7,29.70,NNW,335,3.0,3.0,11,0.00,,,0.00,Wunderground v.1.15,2013-05-28 00:50:00,
2013-05-27 18:55:00,63.0,5.5,29.71,NNW,348,3.0,6.0,10,0.00,,,0.00,Wunderground v.1.15,2013-05-28 00:55:00,
2013-05-27 19:00:00,63.0,5.5,29.70,NNW,333,4.0,5.0,10,0.00,,,0.00,Wunderground v.1.15,2013-05-28 01:00:00,
2013-05-27 19:10:00,62.8,7.4,29.70,NW,317,3.0,3.0,11,0.00,,,0.00,Wunderground v.1.15,2013-05-28 01:10:00,
2013-05-27 19:15:00,62.6,7.3,29.70,NNW,340,2.0,4.0,11,0.00,,,0.00,Wunderground v.1.15,2013-05-28 01:15:00,
2013-05-27 19:20:00,62.5,7.2,29.70,NNW,339,1.0,1.0,11,0.00,,,0.00,Wunderground v.1.15,2013-05-28 01:20:00,
2013-05-27 19:25:00,62.2,8.9,29.70,WNW,288,1.0,1.0,12,0.00,,,0.00,Wunderground v.1.15,2013-05-28 01:25:00,
2013-05-27 19:30:00,62.1,10.6,29.70,NW,305,3.0,3.0,13,0.00,,,0.00,Wunderground v.1.15,2013-05-28 01:30:00,
2013-05-27 19:40:00,62.9,11.2,29.70,NW,321,4.0,8.0,13,0.00,,,0.00,Wunderground v.1.15,2013-05-28 01:40:00,
2013-05-27 19:45:00,62.9,11.2,29.70,NW,321,4.0,8.0,13,0.00,,,0.00,Wunderground v.1.15,2013-05-28 01:45:00,
2013-05-27 19:55:00,62.6,12.7,29.69,NNW,341,2.0,4.0,14,0.00,,,0.00,Wunderground v.1.15,2013-05-28 01:55:00,
2013-05-27 20:00:00,62.4,14.1,29.69,WNW,302,1.0,2.0,15,0.00,,,0.00,Wunderground v.1.15,2013-05-28 02:00:00,
2013-05-27 20:10:00,62.3,12.4,29.69,NNW,345,3.0,5.0,14,0.00,,,0.00,Wunderground v.1.15,2013-05-28 02:10:00,
2013-05-27 20:15:00,62.2,12.3,29.70,NNW,340,3.0,5.0,14,0.00,,,0.00,Wunderground v.1.15,2013-05-28 02:15:00,
2013-05-27 20:20:00,61.7,13.5,29.69,WNW,284,2.0,2.0,15,0.00,,,0.00,Wunderground v.1.15,2013-05-28 02:20:00,
2013-05-27 20:30:00,61.5,13.4,29.70,NW,313,2.0,2.0,15,0.00,,,0.00,Wunderground v.1.15,2013-05-28 02:30:00,
2013-05-27 20:40:00,61.5,13.4,29.69,WNW,295,3.0,5.0,15,0.00,,,0.00,Wunderground v.1.15,2013-05-28 02:40:00,
2013-05-27 20:45:00,61.7,13.5,29.69,NW,321,4.0,5.0,15,0.00,,,0.00,Wunderground v.1.15,2013-05-28 02:45:00,
2013-05-27 20:50:00,61.6,13.4,29.69,North,5,4.0,4.0,15,0.00,,,0.00,Wunderground v.1.15,2013-05-28 02:50:00,
2013-05-27 21:00:00,61.2,13.1,29.69,NW,312,3.0,3.0,15,0.00,,,0.00,Wunderground v.1.15,2013-05-28 03:00:00,
2013-05-27 21:10:00,59.5,14.6,29.69,NNW,344,1.0,2.0,17,0.00,,,0.00,Wunderground v.1.15,2013-05-28 03:10:00,
2013-05-27 21:15:00,59.1,15.6,29.69,NNW,336,1.0,2.0,18,0.00,,,0.00,Wunderground v.1.15,2013-05-28 03:15:00,
2013-05-27 21:20:00,58.4,16.2,29.70,North,355,0.0,0.0,19,0.00,,,0.00,Wunderground v.1.15,2013-05-28 03:20:00,
2013-05-27 21:25:00,57.8,16.9,29.71,NNW,342,0.0,0.0,20,0.00,,,0.00,Wunderground v.1.15,2013-05-28 03:25:00,
2013-05-27 21:30:00,57.8,14.5,29.71,NNW,333,1.0,2.0,18,0.00,,,0.00,Wunderground v.1.15,2013-05-28 03:30:00,
2013-05-27 21:40:00,58.7,13.9,29.72,North,355,2.0,2.0,17,0.00,,,0.00,Wunderground v.1.15,2013-05-28 03:40:00,
2013-05-27 21:45:00,58.3,16.2,29.72,NW,322,1.0,2.0,19,0.00,,,0.00,Wunderground v.1.15,2013-05-28 03:45:00,
2013-05-27 21:50:00,57.4,16.6,29.72,NW,313,1.0,1.0,20,0.00,,,0.00,Wunderground v.1.15,2013-05-28 03:50:00,
2013-05-27 21:55:00,56.9,16.2,29.72,West,279,1.0,1.0,20,0.00,,,0.00,Wunderground v.1.15,2013-05-28 03:55:00,
2013-05-27 22:00:00,56.2,18.8,29.72,WSW,238,1.0,1.0,23,0.00,,,0.00,Wunderground v.1.15,2013-05-28 04:00:00,
2013-05-27 22:05:00,55.1,18.9,29.73,WSW,238,0.0,1.0,24,0.00,,,0.00,Wunderground v.1.15,2013-05-28 04:05:00,
2013-05-27 22:10:00,54.7,20.4,29.73,WSW,238,0.0,0.0,26,0.00,,,0.00,Wunderground v.1.15,2013-05-28 04:10:00,
2013-05-27 22:15:00,54.1,18.1,29.73,WSW,238,0.0,0.0,24,0.00,,,0.00,Wunderground v.1.15,2013-05-28 04:15:00,
2013-05-27 22:20:00,53.5,17.5,29.73,WSW,238,0.0,0.0,24,0.00,,,0.00,Wunderground v.1.15,2013-05-28 04:20:00,
2013-05-27 22:25:00,53.2,20.9,29.72,WSW,238,0.0,0.0,28,0.00,,,0.00,Wunderground v.1.15,2013-05-28 04:25:00,
2013-05-27 22:30:00,53.0,19.0,29.72,WSW,238,0.0,0.0,26,0.00,,,0.00,Wunderground v.1.15,2013-05-28 04:30:00,
2013-05-27 22:40:00,52.3,20.9,29.73,WSW,238,0.0,0.0,29,0.00,,,0.00,Wunderground v.1.15,2013-05-28 04:40:00,
2013-05-27 22:45:00,52.1,19.9,29.72,WSW,238,0.0,0.0,28,0.00,,,0.00,Wunderground v.1.15,2013-05-28 04:45:00,
2013-05-27 22:55:00,51.5,19.4,29.72,WSW,238,0.0,0.0,28,0.00,,,0.00,Wunderground v.1.15,2013-05-28 04:55:00,
2013-05-27 23:00:00,51.4,20.2,29.73,WSW,238,0.0,0.0,29,0.00,,,0.00,Wunderground v.1.15,2013-05-28 05:00:00,
2013-05-27 23:10:00,50.8,22.7,29.73,WSW,238,0.0,0.0,33,0.00,,,0.00,Wunderground v.1.15,2013-05-28 05:10:00,
2013-05-27 23:15:00,50.5,20.2,29.73,WSW,238,0.0,0.0,30,0.00,,,0.00,Wunderground v.1.15,2013-05-28 05:15:00,
2013-05-27 23:20:00,50.4,20.1,29.73,WSW,238,0.0,0.0,30,0.00,,,0.00,Wunderground v.1.15,2013-05-28 05:20:00,
2013-05-27 23:25:00,50.1,22.1,29.73,WSW,238,0.0,0.0,33,0.00,,,0.00,Wunderground v.1.15,2013-05-28 05:25:00,
2013-05-27 23:30:00,50.1,22.1,29.73,WSW,238,0.0,0.0,33,0.00,,,0.00,Wunderground v.1.15,2013-05-28 05:30:00,
2013-05-27 23:40:00,49.6,20.2,29.73,WSW,238,0.0,0.0,31,0.00,,,0.00,Wunderground v.1.15,2013-05-28 05:40:00,
2013-05-27 23:45:00,49.4,20.0,29.73,WSW,238,0.0,0.0,31,0.00,,,0.00,Wunderground v.1.15,2013-05-28 05:45:00,
2013-05-27 23:50:00,49.2,19.8,29.73,WSW,238,0.0,0.0,31,0.00,,,0.00,Wunderground v.1.15,2013-05-28 05:50:00,
2013-05-27 23:55:00,49.0,20.4,29.73,WSW,238,0.0,0.0,32,0.00,,,0.00,Wunderground v.1.15,2013-05-28 05:55:00,